close

Jackpot

Texas Poker Multi Jackpot System

Kini Telah hadir Jackpot SUPER ROYAL FLUSH

Kini Telah hadir Jackpot 2000 (khusus table VIP keatas).

Ikutilah global jackpot yang tersedia di system kami, dengan system jackpot terbaru dan pertama di indonesia, anda dapat membeli jackpot dengan harga 100 rupiah saja dan menangkan hadiahnya hingga puluhan juta rupiah.

Jackpot bukanlah suatu keharusan untuk dibeli, namun kami memberikan suatu fitur tambahan untuk member tercinta dari www.anekapoker.net.

Terdapat tiga pilihan harga jackpot yang bisa anda beli yaitu :100,500,1000 dan 2000(khusus table VIP Keatas) rupiah.

Hadiah dari Multi jackpot system www.anekapoker.net

  1. full house x 10 harga jackpot yang anda beli.
      (contoh:anda membeli 1000 maka:1000 X10 = 10.000)
  2. four of kind x 250 harga jackpot yang anda beli
      (contoh:anda membeli 1000 maka:1000 X250 = 250.000)
  3. Straight flush x 1200
      (contoh:anda membeli 1000 maka:1000 X1200 = 1.200.000)
  4. Royal flush x 10000 harga jackpot yang anda beli
      (contoh:anda membeli 1000 maka:1000 X10000 = 10.000.000)
  5. SUPER ROYAL FLUSH x 30000 harga jackpot yang anda beli
      (contoh:anda membeli 1000 maka:1000 X30000 = 30.000.000)

Kondisi kartu

  1. full house adalah kondisi kartu dimana kartu anda dan kartu tengah dengan total 7 kartu bisa mendapatkan nilai 5 kartu dengan kombinasi 1 tris(three of kind) dan 1 pair, contoh 3 kartu 10 dan 2 kartu 5
  2. Four of kind adalah kondisi kartu dimana kartu anda dan kartu tengah dengan total 7 kartu bisa mendapatkan nilai 5 kartu dengan kombinasi 4 kartu yang sama jumlah dan 1 kartu apapun juga contoh anda mendapatkan 4 buah kartu angka 3 dan 1 kartu apapun.
  3. Staright flush adalah kondisi kartu dimana kartu anda dan kartu tengah dengan total 7 kartu bisa mendapatkan nilai 5 kartu dengan kombinasi seri / staright dengan kembang yang sama contoh : urutan kartu dari angka 5, 6, 7, 8 , 9 10 dengan kembang yg sama misalnya as hati
  4. Royal flush adalah kondisi kartu dimana kartu anda dan kartu tengah dengan total 7 kartu bisa mendapatkan nilai 5 kartu dengan kombinasi seri / staright dengan kembang yang sama tetapi kartu tersebut haruslah dimulai dari 10. contoh 10, Queen, Jack, King dan aces dengan kembang yang sama
  5. Super Royal flush adalah kondisi kartu dimana Kedua kartu anda digabung dengan 3 kartu pertama meja haruslah royal flush. contoh kartu anda 10,Queen kembang sama dan 3 kartu pertama meja adalah Jack, King dan aces dengan kembang yang sama

Demikian adalah penjelasan dari Multi Jackpot www.anekapoker.net terima kasih dan selamat bermain salam hoki dari kami

Texas Poker Jackpot Winner

TOP SUPER ROYAL FLUSH
No.TanggalNamaPriceWin
121/06 22:44RUBINI8Super Royal flush3,000,000
221/06 22:11CERKYSuper Royal flush6,000,000
321/06 21:35AAKDEDY15Super Royal flush15,000,000
421/06 21:16TESS94Super Royal flush6,000,000
521/06 18:28SAHAT33333Super Royal flush15,000,000
TOP ROYAL FLUSH
No.TanggalNamaPriceWin
121/06 23:23ONGKY212Royal flush2,000,000
221/06 23:22C4MPUR_ESCRoyal flush2,000,000
321/06 23:20CCCD9DCFRoyal flush1,000,000
421/06 22:59LOOKAZZ99Royal flush1,000,000
521/06 22:56SPYDOLLRoyal flush500,000
TOP STRAIGHT FLUSH
No.TanggalNamaPriceWin
121/06 23:22KRGTRS333Straight Flush240,000
221/06 23:22GRAGAS_100Straight Flush60,000
321/06 23:21LEDZStraight Flush120,000
421/06 23:21BBS32Straight Flush240,000
521/06 23:19BOOOM123Straight Flush1,200,000
LATEST JACKPOT
No.TanggalNamaPriceWin
121/06 23:23ARTA_MORAFull House5,000
221/06 23:23JEMALI99Full House1,000
321/06 23:23MKS001Full House5,000
421/06 23:23ASP968Full House2,000
521/06 23:23BE660Y65Full House2,000
621/06 23:23FRISKA76Full House20,000
721/06 23:23UCRUT123Full House2,000
821/06 23:23BUI_07Full House1,000
921/06 23:23GASMAN92Full House1,000
1021/06 23:23LIMAUKUITFull House1,000
1121/06 23:23NUER999Full House5,000
1221/06 23:23ONDEALFull House5,000
1321/06 23:23R4YK1N6Full House2,000
1421/06 23:23WDCAIR08Full House500
1521/06 23:23BF679490Full House2,000
1621/06 23:23LADON1Four Of A Kind50,000
1721/06 23:23JODOHQFull House5,000
1821/06 23:23CRUTCRUT11Full House5,000
1921/06 23:23FAKHRURAZIFull House2,000
2021/06 23:23TANTE_ALMAFull House500
2121/06 23:23LOST123456Full House1,000
2221/06 23:23AFANDI321Full House2,000
2321/06 23:23NONAME1122Full House1,000
2421/06 23:23RIYAN512Full House5,000
2521/06 23:23LAPAI13Full House5,000
2621/06 23:23A301A7CEFour Of A Kind25,000
2721/06 23:23MANOCTH123Full House20,000
2821/06 23:23JUNK_BUNDAFull House1,000
2921/06 23:23MALANK09Full House5,000
3021/06 23:23PIORT1933Full House10,000
3121/06 23:23TRIHARI420Full House2,000
3221/06 23:23JRDREOFull House2,000
3321/06 23:23ALL05Full House5,000
3421/06 23:23DKI__Full House1,000
3521/06 23:23RAMUAKFull House20,000
3621/06 23:23MULYADITEMFull House2,000
3721/06 23:23PONTAS88Full House5,000
3821/06 23:23ONGKY212Royal flush2,000,000
3921/06 23:23KARAMDENFull House500
4021/06 23:23MITUN001Full House2,000
4121/06 23:23IRWANSYAH7Full House1,000
4221/06 23:23GACORR159Full House2,000
4321/06 23:23ACEN89Full House2,000
4421/06 23:23RUPIAH69Full House20,000
4521/06 23:23FQY02M1UGCFull House10,000
4621/06 23:23ZONKY456Four Of A Kind125,000
4721/06 23:23C016A687Full House1,000
4821/06 23:23CEPETCOPOTFull House2,000
4921/06 23:23FINO1214Full House1,000
5021/06 23:23AKUMAUHFull House1,000

Domino Multi Jackpot System

Ikutilah global jackpot yang tersedia di system kami, dengan system jackpot terbaru dan pertama di indonesia, anda dapat membeli jackpot dengan harga 100 rupiah saja dan menangkan hadiahnya hingga puluhan juta rupiah.

Jackpot bukanlah suatu keharusan untuk dibeli, namun kami memberikan suatu fitur tambahan untuk member tercinta dari www.anekapoker.net.

Terdapat tiga pilihan harga jackpot yang bisa anda beli yaitu :100,500 dan 1000 rupiah.

Hadiah dari Multi jackpot system www.anekapoker.net

  1. Murni Kecil x 50 harga jackpot yang anda beli.
      (contoh:anda membeli 1000 maka:1000 X 50 = 50.000)
  2. Murni Besar x 50 harga jackpot yang anda beli
      (contoh:anda membeli 1000 maka:1000 X 50 = 50.000)
  3. BALAK x 100 harga jackpot yang anda beli
      (contoh:anda membeli 1000 maka:1000 X 100 = 100.000)
  4. ENAM DEWA x 6666 harga jackpot yang anda beli
      (contoh:anda membeli 1000 maka:1000 X 6666 = 6.666.000)

Demikian adalah penjelasan dari Multi Jackpot www.anekapoker.net terima kasih dan selamat bermain salam hoki dari kami

Domino Jackpot Winner

TOP ENAM DEWA
No.TanggalNamaPriceWin
121/06 23:05ZHENK10murni enam6,666,000
221/06 22:14BANDIT1507murni enam3,333,000
321/06 22:10TULEM22murni enam3,333,000
421/06 21:48MASTERANUmurni enam6,666,000
521/06 21:12MRS84murni enam6,666,000
TOP BALAK
No.TanggalNamaPriceWin
121/06 23:20CADONEbalak50,000
221/06 23:18LIAR34balak10,000
321/06 23:16EVRIYAN07balak10,000
421/06 23:15JANJI303balak50,000
521/06 23:10OKTBER89balak50,000
LATEST JACKPOT
No.TanggalNamaPriceWin
121/06 23:23TONI1978murni besar50,000
221/06 23:23SIPANCI16murni kecil50,000
321/06 23:23JADIBAEmurni kecil5,000
421/06 23:22L4120Nlucky992,500
521/06 23:22GOLDA11murni kecil5,000
621/06 23:21VIKNIZTAmurni kecil50,000
721/06 23:21WKGOMBEL01murni kecil25,000
821/06 23:21AGOY33murni besar50,000
921/06 23:21BLUEDEVIL8murni besar50,000
1021/06 23:21IWANDHANKmurni kecil25,000
1121/06 23:20SUBEJO123murni kecil50,000
1221/06 23:20CADONEbalak50,000
1321/06 23:20EMIELSYAMmurni besar50,000
1421/06 23:19B5D11murni kecil50,000
1521/06 23:19MPIP89murni kecil25,000
1621/06 23:19TARAUPmurni kecil50,000
1721/06 23:18DB0F7296murni besar25,000
1821/06 23:18SEMAR143murni kecil50,000
1921/06 23:18LIAR34balak10,000
2021/06 23:18DB88C083murni besar25,000
2121/06 23:18SIKAT4BIS8murni kecil50,000
2221/06 23:16EVRIYAN07balak10,000
2321/06 23:16QIAN27murni besar50,000
2421/06 23:16SETIABGZmurni kecil50,000
2521/06 23:16DALTUPmurni besar50,000
2621/06 23:16VIRLYmurni besar5,000
2721/06 23:16SATRIA7580murni kecil25,000
2821/06 23:15JANJI303balak50,000
2921/06 23:15TEMPEKU123murni kecil5,000
3021/06 23:15EMANEKOKmurni kecil50,000
3121/06 23:15REIHAN99murni kecil50,000
3221/06 23:14QTQVNCJATVmurni besar50,000
3321/06 23:13PASER456murni kecil50,000
3421/06 23:13J33XP00Tmurni besar25,000
3521/06 23:13BRUR41murni kecil5,000
3621/06 23:12AGOY33murni kecil50,000
3721/06 23:12WKGOMBEL01murni besar25,000
3821/06 23:11IRSAD1111murni kecil25,000
3921/06 23:11SAKOY82murni besar50,000
4021/06 23:11OGOAN123murni besar50,000
4121/06 23:10OKTBER89balak50,000
4221/06 23:10LB881007murni kecil5,000
4321/06 23:09BU5Umurni kecil5,000
4421/06 23:06TIKTOK6balak100,000
4521/06 23:06AUPARMA505murni besar25,000
4621/06 23:06R4M4777murni kecil50,000
4721/06 23:06OTOK62balak50,000
4821/06 23:06F9945364balak100,000
4921/06 23:05QTQVNCJATVbalak50,000
5021/06 23:05LUDO8872murni kecil5,000

Ceme Multi Jackpot System

Jackpot dilihat dari gabungan kartu pemain dengan kartu bandar. Bandar harus membeli jackpot sebanyak jumlah player yang sedang duduk. Sebagai contoh bila terdapat 3 pemain duduk bermain, dan bandar memutuskan untuk membeli jackpot Rp 1.000, maka pada periode tersebut bandar akan membeli jackpot sebanyak 3xRp1.000 = Rp3.000.

Jackpot bukanlah suatu keharusan untuk dibeli, namun kami memberikan suatu fitur tambahan untuk member tercinta dari www.anekapoker.net.

Terdapat tiga pilihan harga jackpot yang bisa anda beli yaitu :100,500 dan 1000 rupiah.

Hadiah dari Multi jackpot system www.anekapoker.net

  1. Murni Kecil x 50 harga jackpot yang anda beli.
      (contoh:anda membeli 1000 maka:1000 X 50 = 50.000)
  2. Murni Besar x 50 harga jackpot yang anda beli
      (contoh:anda membeli 1000 maka:1000 X 50 = 50.000)
  3. BALAK x 200 harga jackpot yang anda beli
      (contoh:anda membeli 1000 maka:1000 X 200 = 200.000)
  4. ENAM DEWA x 6666 harga jackpot yang anda beli
      (contoh:anda membeli 1000 maka:1000 X 6666 = 6.666.000)

Demikian adalah penjelasan dari Multi Jackpot www.anekapoker.net terima kasih dan selamat bermain salam hoki dari kami

Ceme Jackpot Winner

TOP ENAM DEWA
No.TanggalNamaPriceWin
121/06 23:19K7E0TGAVLVmurni enam3,333,000
221/06 23:19OVER5345murni enam3,333,000
321/06 23:19ATHA171216murni enam6,666,000
421/06 23:193NI3murni enam3,333,000
521/06 23:17APIP31murni enam6,666,000
TOP BALAK
No.TanggalNamaPriceWin
121/06 23:23FRITZ09balak100,000
221/06 23:23IDK896664balak100,000
321/06 23:23ANDA44balak200,000
421/06 23:23MALA04balak200,000
521/06 23:22R5F1O8FUF1balak20,000
LATEST JACKPOT
No.TanggalNamaPriceWin
121/06 23:23FRITZ09balak100,000
221/06 23:23IDK896664balak100,000
321/06 23:23IDK896664murni kecil25,000
421/06 23:23BARAKUDA79murni kecil25,000
521/06 23:23ANDA44balak200,000
621/06 23:23MALA04balak200,000
721/06 23:23NGAPAK001murni besar50,000
821/06 23:23NGAPAK001murni besar50,000
921/06 23:23WANYAD66murni besar5,000
1021/06 23:23JHON_KEI99murni kecil50,000
1121/06 23:23BAS81murni besar50,000
1221/06 23:23RARA8383murni besar5,000
1321/06 23:23SPBU008murni besar50,000
1421/06 23:22R5F1O8FUF1balak20,000
1521/06 23:22GOHO2121murni besar50,000
1621/06 23:22MANPARE7murni kecil50,000
1721/06 23:22RUINS948murni kecil50,000
1821/06 23:22NGAPAK001balak200,000
1921/06 23:22MEKA08murni kecil50,000
2021/06 23:22MECE123murni kecil50,000
2121/06 23:22FRITZ09balak100,000
2221/06 23:22MRJUNNETbalak100,000
2321/06 23:22BUDI533murni besar5,000
2421/06 23:22JHONONAR31murni kecil50,000
2521/06 23:22BYG212murni besar50,000
2621/06 23:22JASYARAbalak20,000
2721/06 23:22JAJANAN333balak200,000
2821/06 23:22DANGTALU29balak200,000
2921/06 23:22TEJOSARImurni besar25,000
3021/06 23:22SIKARDUS21murni besar50,000
3121/06 23:22JHON_KEI99murni kecil50,000
3221/06 23:22RAGATA000balak200,000
3321/06 23:21JADIHOKKYmurni kecil50,000
3421/06 23:21YOS0001murni kecil25,000
3521/06 23:21ROE22murni kecil50,000
3621/06 23:21KROPOK86murni kecil5,000
3721/06 23:21DU2NGMA2Nmurni kecil50,000
3821/06 23:21MBOIS00murni kecil5,000
3921/06 23:21T4DLOPAL000murni kecil25,000
4021/06 23:21BAS81murni kecil50,000
4121/06 23:21D0E426F6murni kecil25,000
4221/06 23:21DJAROT766murni besar50,000
4321/06 23:21CONGEE99murni besar50,000
4421/06 23:21WIESS10murni kecil50,000
4521/06 23:21GOHO2121murni besar50,000
4621/06 23:20SEXSULIS69murni besar5,000
4721/06 23:20ROSA45murni besar25,000
4821/06 23:20WIDIA11murni kecil50,000
4921/06 23:20WURI99murni kecil25,000
5021/06 23:20AMPE5JTmurni besar50,000